Location: Marion Hill
(40.7303°N, 80.2959°W)
Time: 18:48:09
(UTC+00:00)

ARGOS - Pass Details

Date: 29 October 2020
Orbit: 820 x 835 km, 98.4° (Epoch: 23 November)

Event Time Altitude Azimuth Distance (km) Brightness Sun altitude
Exits shadow 23:21:54 16° 85° (E) 2,028 4.5 -12.2°
Maximum altitude 23:23:35 19° 62° (ENE) 1,903 4.5 -12.5°
Drops below altitude 10° 23:27:15 10° 20° (NNE) 2,454 5.4 -13.2°
Sets 23:30:16 0° 3° (N) 3,393 6.2 -13.7°
